Temperature
23 20 20 21 21 21 21 20 19 18 18 17 16 15 15 15 15 15 15 15 15 15 14 14 14 13 13 13 13 13 13 13 13 13 13 13 14 14 14 14 14 14 14 15
20 20 21 20 20 19 19 18 18 18 17 16 15 15 15 15 15 15 15 15 15 15 14 14 14 13 13 13 13 12 12 13 13 13 13 13 13 13 13 13 13 14 14 14
21 21 21 20 20 20 19 18 18 18 16 15 15 15 15 15 15 15 15 15 15 15 14 14 14 13 13 13 12 12 12 12 12 12 12 13 13 13 13 13 13 13 13 14
20 20 20 20 20 19 19 19 19 18 16 15 16 14 14 13 14 14 15 15 15 15 14 14 14 13 13 13 12 12 12 12 12 12 12 12 12 12 12 12 13 13 13 13
20 20 20 20 20 20 19 18 18 17 16 15 15 14 14 13 13 13 14 15 15 15 15 14 14 13 13 13 12 12 12 12 12 12 12 12 12 12 12 12 12 13 13 13
19 20 20 19 19 19 18 16 15 13 14 15 15 14 14 12 13 13 14 15 15 15 15 14 14 14 13 13 12 12 12 12 12 12 12 12 12 12 12 12 12 13 13 13
19 19 19 20 19 17 16 15 14 15 14 14 15 14 14 15 13 14 14 15 15 15 15 15 14 14 14 13 13 12 12 12 11 11 11 12 11 11 12 12 12 12 12 12
19 18 19 19 18 17 16 15 15 16 15 14 15 14 14 15 15 15 15 15 15 15 15 15 15 14 14 13 13 12 12 12 11 11 11 11 11 11 11 11 11 12 12 12
18 18 19 19 19 18 17 14 14 13 14 14 14 14 14 15 14 14 15 15 15 15 15 15 15 14 14 14 13 12 12 12 11 11 11 11 11 11 11 11 11 11 12 12
17 18 18 19 18 17 17 13 12 13 14 14 14 14 14 15 14 13 13 14 15 15 15 15 15 15 14 14 13 13 12 12 12 11 11 11 11 11 11 11 11 11 11 11
17 17 17 18 18 18 16 14 12 11 12 13 14 14 14 15 14 13 14 15 16 16 16 16 15 15 15 14 14 13 13 12 12 12 11 11 11 11 11 11 11 11 11 11
15 14 15 17 17 17 17 16 12 14 13 11 12 13 15 14 14 15 15 16 16 16 16 16 15 15 15 15 14 14 13 13 12 12 11 11 11 11 11 11 11 11 11 11
15 15 16 17 17 17 17 15 13 11 11 10 12 13 14 14 15 15 16 16 16 16 16 16 16 15 15 15 15 14 14 13 12 12 11 11 11 11 10 10 10 10 10 11
16 15 16 18 17 16 17 16 13 13 12 12 12 13 14 14 13 15 16 17 16 16 16 16 16 16 15 15 15 14 14 13 13 12 12 11 11 10 10 10 10 10 10 10
15 16 17 17 17 17 17 17 14 14 13 13 14 14 14 14 14 16 17 17 16 16 16 16 16 16 15 15 15 15 14 14 13 12 12 11 11 10 10 10 10 10 10 10
14 17 18 18 18 17 17 17 15 14 15 14 14 14 14 16 16 16 17 17 17 17 16 16 16 16 15 15 15 15 14 14 13 12 12 11 11 10 10 10 10 10 9 10
14 16 16 17 17 18 18 18 17 16 15 15 15 15 15 16 16 17 18 18 17 17 17 17 16 16 16 15 15 15 14 14 13 12 12 11 11 10 10 10 10 9 9 9
14 13 13 15 18 19 19 19 18 17 17 14 15 15 16 17 18 19 19 18 18 17 17 17 16 16 16 15 15 15 14 14 13 12 12 11 10 10 10 10 10 9 9 9
13 14 13 13 16 17 18 19 19 19 19 18 16 16 17 17 17 19 20 19 19 18 17 17 17 16 16 16 15 15 14 14 13 12 12 11 11 10 10 10 10 10 9 9
12 12 12 13 17 18 19 19 20 19 19 19 19 18 17 16 15 17 20 20 19 18 18 17 17 16 16 16 15 15 15 14 13 13 12 11 11 10 10 10 10 10 9 9
15 13 13 13 15 15 16 18 19 19 18 20 20 20 18 17 18 20 20 20 20 19 18 17 17 17 16 16 16 15 15 14 14 13 12 12 11 11 10 10 10 10 10 10
14 13 13 12 15 17 18 18 17 18 20 20 21 21 20 21 21 20 20 20 20 19 19 18 17 17 17 16 16 16 15 15 14 13 13 12 12 11 11 10 10 10 10 10
13 13 12 13 15 16 16 16 17 18 19 19 20 20 20 20 21 21 20 20 20 19 19 18 18 17 17 17 16 16 16 15 15 14 13 13 12 12 11 11 10 10 10 10
13 13 12 13 15 15 14 15 16 18 18 19 19 20 20 20 20 20 20 20 20 20 19 19 18 18 17 17 17 17 16 15 15 15 14 13 13 12 12 11 11 10 10 10
14 12 13 14 15 15 15 14 16 17 19 19 20 20 20 20 20 20 20 20 20 19 19 19 18 18 18 17 17 17 16 16 16 15 15 14 13 13 12 12 11 11 11 10
11 12 13 14 13 13 12 13 15 17 18 18 19 19 19 19 19 19 19 19 19 19 19 18 18 18 18 18 17 17 17 16 16 16 15 15 14 13 13 12 12 11 11 11
Wind_Speed
6 7 4 2 3 4 5 5 3 1 3 4 4 4 3 2 3 3 1 1 3 5 6 6 6 7 7 7 8 8 9 9 8 6 6 6 6 5 5 4 6 7 7 6
7 4 1 6 8 8 6 5 3 3 4 3 3 1 2 2 3 4 3 3 3 5 6 6 7 6 6 7 7 8 8 9 8 6 5 4 5 4 4 4 5 7 7 6
7 1 4 7 7 6 4 4 4 4 4 4 4 4 4 2 1 2 3 3 4 5 6 7 7 7 7 7 8 8 8 9 8 8 5 6 4 4 4 5 5 5 7 6
6 3 5 6 4 3 1 0 3 5 4 0 1 4 6 5 4 4 4 4 5 6 6 7 7 8 8 7 7 7 8 8 8 7 6 7 5 5 5 5 5 7 6 6
4 3 5 4 2 2 3 3 4 3 4 2 1 2 7 1 6 8 7 6 7 7 7 7 7 8 7 6 6 7 7 7 7 7 7 6 6 5 5 6 7 7 6 5
4 3 3 3 3 3 5 6 7 6 5 1 2 4 7 4 7 6 6 7 7 7 7 7 7 7 7 6 6 6 7 7 7 8 7 7 8 8 8 9 8 7 5 5
4 4 4 2 4 6 7 6 4 5 4 4 2 3 8 5 7 7 7 8 8 7 7 7 8 8 8 7 7 6 7 7 8 8 8 7 7 7 7 7 7 7 6 5
4 1 3 3 4 3 3 6 6 3 3 5 3 5 7 4 4 4 5 6 6 7 7 7 8 7 7 7 6 6 6 6 7 7 8 7 7 5 5 6 6 6 5 6
6 3 2 3 3 6 4 3 5 6 2 3 6 7 7 1 2 3 5 6 7 8 8 8 7 7 6 6 6 5 6 6 7 7 7 7 7 6 7 7 6 6 6 6
7 5 1 2 5 5 4 8 5 4 2 3 7 6 5 6 8 8 8 8 9 8 8 8 7 6 6 5 5 4 4 5 5 6 5 5 6 6 6 6 7 8 8 7
4 6 1 3 2 3 4 5 5 4 4 4 4 7 6 7 8 9 10 9 9 9 8 8 7 6 6 5 4 4 4 4 5 5 5 6 6 6 6 6 7 7 7 8
4 6 2 3 2 2 3 5 6 4 2 4 3 7 7 7 8 8 9 9 8 8 8 7 7 6 6 6 5 5 4 4 4 4 4 5 5 6 6 7 7 7 8 8
6 6 3 4 4 0 2 4 5 6 5 5 3 8 5 4 6 7 8 9 8 8 8 7 6 6 6 6 6 5 5 4 4 3 3 5 5 6 6 6 7 7 8 8
5 5 6 6 6 6 4 5 6 6 4 4 7 9 9 8 9 9 9 9 8 7 7 7 6 6 7 6 6 5 5 4 3 2 2 4 5 5 5 6 6 7 7 7
5 4 4 4 3 4 6 6 8 8 8 8 8 8 12 10 9 9 8 8 7 8 8 8 7 6 6 6 5 5 5 4 2 2 2 3 4 4 5 5 6 6 7 7
3 4 2 2 3 4 4 6 8 8 6 8 7 10 11 8 5 5 8 8 9 9 9 8 8 7 7 6 6 5 4 4 2 2 2 3 3 4 5 5 6 6 7 7
3 4 3 2 4 2 5 6 8 6 8 8 8 9 6 5 6 7 8 9 10 10 9 9 8 7 7 6 5 5 4 3 2 2 2 2 3 4 5 5 6 6 6 6
6 5 4 1 2 3 6 3 6 6 7 10 9 9 7 8 6 7 7 9 10 10 9 9 7 6 6 4 4 3 2 2 3 2 3 3 3 4 5 5 6 5 4 5
4 7 4 3 0 6 7 2 5 3 5 5 7 8 5 1 3 6 8 10 11 11 9 8 7 6 4 5 4 2 2 2 3 4 4 4 3 4 4 5 5 4 4 4
6 6 6 4 2 4 6 3 1 3 5 5 4 5 2 4 2 6 6 7 10 9 8 8 6 5 5 5 4 4 4 4 6 6 5 4 4 4 4 5 4 3 3 4
3 4 4 4 3 7 8 4 2 2 5 5 3 3 6 7 7 5 5 4 7 8 8 8 7 6 7 5 6 6 6 8 8 6 5 4 4 4 5 4 3 3 4 4
8 6 5 5 3 6 3 3 4 6 4 3 3 3 6 9 9 7 7 7 7 7 8 8 7 8 6 6 7 7 9 8 6 5 5 6 5 5 3 3 3 3 3 4
7 8 7 8 6 2 3 2 4 4 4 4 4 4 4 6 7 6 6 8 8 8 8 7 8 8 7 7 8 9 9 7 6 6 7 7 6 5 4 3 3 2 2 2
4 3 5 3 3 1 3 5 7 6 4 5 5 5 3 3 6 7 6 6 7 7 8 7 7 8 8 8 9 11 8 6 7 8 8 7 6 6 5 4 3 3 3 3
4 6 4 4 2 1 4 9 10 8 7 7 7 7 7 6 7 6 6 6 6 6 6 6 8 9 11 9 9 9 8 7 8 8 8 7 7 7 6 5 5 5 5 5
4 6 7 5 3 3 2 7 9 8 10 10 10 11 10 9 8 8 7 6 6 6 5 5 8 10 11 9 9 9 8 9 9 8 8 7 6 6 6 5 5 8 9 9
Wind_Direction
33 66 79 148 160 153 148 149 153 142 109 116 150 165 181 133 129 145 170 300 323 314 307 317 325 330 334 338 341 339 340 339 343 342 341 334 329 322 319 312 313 310 303 295
52 55 66 93 80 85 98 119 122 80 55 95 117 240 243 202 201 205 213 250 286 305 314 318 323 329 332 330 333 336 338 336 341 339 327 309 303 302 298 305 315 312 306 297
118 117 86 87 78 76 69 143 161 142 72 62 84 321 247 242 201 206 226 247 271 282 295 307 316 317 324 328 330 332 330 333 337 340 336 334 332 322 332 333 327 315 311 299
88 58 84 81 71 101 118 30 129 129 115 308 136 288 277 234 242 240 244 258 271 281 290 298 305 311 316 317 323 326 329 332 339 346 351 351 346 336 321 319 315 316 313 307
80 82 87 90 82 112 147 54 78 106 121 65 39 203 291 219 249 248 241 247 261 272 281 290 295 300 307 315 323 326 332 336 342 349 351 350 344 328 321 326 329 332 329 322
76 57 84 122 82 69 109 71 55 51 74 346 229 181 281 233 226 235 224 235 254 269 283 291 298 306 310 317 326 333 338 334 341 347 351 354 347 341 343 344 343 339 333 333
46 27 19 82 77 33 67 80 33 5 8 266 261 207 253 256 227 216 212 228 248 265 277 288 300 308 310 316 324 331 337 331 336 344 348 348 345 344 346 341 342 341 340 338
129 353 355 46 112 105 77 120 145 198 244 291 317 249 258 271 241 214 212 226 251 267 273 278 286 293 296 303 317 324 328 325 332 339 340 343 348 348 343 341 342 342 338 330
148 171 2 72 108 119 111 98 149 131 168 294 292 289 305 228 248 226 231 243 255 264 274 279 287 291 293 297 303 309 311 316 325 333 336 341 348 351 347 344 346 344 342 341
133 132 357 66 75 48 104 139 96 104 126 301 303 291 269 263 251 242 238 241 252 266 277 284 286 285 290 284 285 300 298 302 311 327 332 338 340 344 344 348 351 348 345 346
102 123 31 30 136 165 118 89 99 104 141 156 295 283 231 234 240 232 233 233 241 255 268 278 286 287 289 287 280 287 299 308 316 324 329 337 338 341 346 351 347 344 343 346
103 112 141 263 278 211 161 154 145 144 197 165 196 270 265 248 253 232 235 236 241 251 263 274 284 292 296 293 283 278 286 293 300 312 325 332 335 342 348 347 344 344 345 344
132 109 85 354 345 299 157 142 135 124 116 154 197 266 286 279 264 242 238 241 246 257 271 282 287 290 291 289 281 272 273 277 288 305 326 334 337 340 339 337 340 345 346 346
112 113 158 184 214 198 196 177 152 136 155 210 230 258 293 278 260 251 239 239 243 253 265 274 280 282 284 283 277 269 268 265 269 288 321 328 328 328 326 330 339 343 345 347
102 137 191 225 221 182 207 199 177 187 195 207 243 248 267 269 251 243 232 230 238 253 261 263 264 274 282 284 282 271 263 257 246 251 294 309 317 326 332 338 341 341 345 348
82 123 92 1 357 200 238 236 201 214 216 235 265 275 261 266 253 244 230 222 231 243 251 258 262 267 270 273 277 277 264 250 224 232 266 297 319 331 336 336 338 342 343 343
101 119 101 308 323 37 282 245 196 212 212 203 231 250 276 269 253 244 231 221 226 235 242 248 251 252 257 261 260 265 261 235 211 232 265 288 309 321 326 332 339 339 337 341
124 102 108 73 44 248 245 245 186 214 245 218 237 258 260 250 266 259 228 217 228 233 236 240 238 244 252 251 252 254 238 205 209 236 265 276 291 307 319 331 332 328 327 334
121 125 109 104 115 290 300 249 179 197 291 226 233 268 277 270 341 301 234 210 219 224 224 228 226 225 237 244 236 208 205 204 218 240 256 262 266 290 310 319 319 319 324 330
68 88 109 121 157 234 248 283 188 120 309 281 231 276 216 119 19 282 279 222 222 223 220 221 218 215 228 233 196 190 212 220 234 238 243 250 250 265 284 298 306 312 316 316
93 71 119 151 213 263 254 264 119 109 260 278 248 251 176 195 218 245 300 253 226 220 217 211 204 213 225 211 183 205 220 230 234 232 236 245 247 254 263 289 304 316 325 335
166 153 169 149 185 253 290 157 171 222 266 288 280 251 214 238 263 270 274 264 247 232 221 205 204 224 228 200 191 214 230 235 225 218 230 243 249 254 255 271 299 321 336 339
188 186 181 183 200 243 345 278 306 296 284 298 301 298 268 264 277 275 266 260 250 237 227 210 208 227 233 211 201 219 236 224 209 214 230 240 248 248 246 248 273 297 319 325
232 157 152 217 242 176 17 353 341 324 296 308 322 328 339 303 303 303 288 276 263 248 233 217 210 226 239 225 215 227 235 210 204 219 231 234 238 249 245 237 232 236 257 273
188 162 175 219 240 131 26 8 346 348 13 25 23 23 14 0 342 326 309 297 280 266 249 223 219 230 240 236 230 232 223 201 210 224 231 232 231 238 243 240 229 225 227 211
192 180 177 197 187 155 54 347 347 13 26 26 31 30 22 17 358 347 333 323 310 293 277 253 244 244 249 244 243 241 217 200 208 224 231 229 228 231 233 242 260 238 231 237
Height
1525 1532 1540 1538 1537 1539 1543 1549 1554 1554 1552 1556 1559 1561 1560 1560 1560 1560 1560 1559 1558 1557 1556 1553 1551 1547 1544 1540 1536 1533 1529 1525 1522 1518 1515 1512 1510 1509 1507 1506 1505 1505 1504 1505
1533 1539 1537 1536 1537 1541 1546 1553 1555 1555 1554 1557 1561 1561 1559 1559 1559 1559 1559 1558 1558 1557 1555 1553 1550 1547 1543 1540 1536 1532 1528 1525 1521 1518 1515 1512 1509 1507 1505 1504 1503 1501 1501 1500
1536 1539 1536 1538 1542 1546 1549 1553 1554 1557 1559 1560 1563 1565 1561 1558 1558 1558 1558 1558 1557 1556 1554 1552 1549 1546 1543 1539 1536 1532 1529 1525 1521 1518 1515 1512 1509 1507 1504 1502 1500 1499 1498 1497
1538 1537 1538 1542 1545 1547 1553 1549 1550 1555 1563 1569 1565 1576 1562 1559 1558 1557 1557 1556 1556 1555 1553 1551 1549 1546 1543 1539 1536 1532 1529 1525 1522 1518 1515 1511 1508 1506 1503 1501 1498 1497 1495 1494
1541 1539 1541 1545 1546 1546 1550 1548 1551 1555 1562 1570 1569 1575 1567 1560 1559 1556 1554 1555 1554 1554 1552 1550 1548 1545 1543 1539 1536 1533 1529 1526 1522 1519 1515 1512 1509 1506 1503 1501 1498 1495 1493 1492
1540 1540 1541 1544 1545 1545 1548 1553 1558 1564 1569 1577 1569 1575 1569 1562 1556 1552 1552 1552 1552 1552 1551 1549 1547 1545 1542 1539 1536 1533 1529 1526 1523 1519 1516 1513 1510 1506 1503 1500 1497 1494 1492 1490
1546 1544 1543 1543 1546 1548 1551 1563 1578 1576 1584 1580 1568 1571 1566 1551 1549 1549 1549 1550 1551 1551 1550 1548 1546 1544 1541 1539 1536 1532 1529 1526 1523 1520 1517 1513 1510 1507 1504 1500 1497 1494 1491 1489
1551 1555 1546 1544 1547 1552 1555 1562 1579 1583 1586 1581 1569 1570 1557 1548 1546 1546 1547 1548 1549 1549 1548 1547 1545 1543 1541 1538 1535 1532 1529 1526 1523 1520 1517 1514 1511 1507 1504 1501 1498 1495 1492 1489
1551 1554 1546 1544 1545 1548 1556 1564 1565 1578 1578 1583 1576 1565 1552 1546 1546 1546 1546 1547 1547 1547 1546 1545 1544 1542 1540 1537 1535 1532 1529 1526 1524 1520 1517 1514 1511 1508 1505 1501 1498 1495 1492 1489
1542 1552 1548 1546 1546 1549 1552 1561 1571 1578 1583 1586 1579 1571 1562 1548 1546 1544 1544 1544 1544 1545 1544 1544 1542 1541 1539 1536 1534 1532 1529 1526 1524 1521 1518 1515 1511 1508 1505 1502 1498 1495 1492 1489
1539 1551 1554 1550 1551 1553 1557 1562 1571 1580 1580 1588 1586 1573 1548 1543 1540 1540 1540 1541 1542 1542 1542 1542 1541 1539 1537 1535 1533 1531 1529 1526 1523 1521 1518 1515 1511 1508 1505 1502 1498 1495 1492 1489
1542 1553 1560 1553 1549 1548 1550 1556 1567 1575 1578 1584 1587 1574 1540 1539 1537 1537 1537 1538 1539 1540 1540 1540 1539 1537 1536 1534 1532 1530 1528 1525 1523 1520 1517 1514 1511 1508 1505 1502 1498 1495 1492 1488
1541 1552 1563 1561 1559 1552 1551 1555 1561 1570 1578 1586 1584 1567 1538 1536 1535 1534 1535 1535 1537 1537 1538 1537 1537 1536 1534 1532 1531 1529 1527 1524 1522 1520 1517 1514 1511 1508 1505 1502 1498 1495 1492 1489
1536 1548 1557 1559 1558 1551 1552 1554 1560 1565 1574 1577 1571 1557 1540 1535 1533 1531 1531 1532 1534 1535 1535 1535 1535 1534 1532 1531 1529 1527 1525 1523 1521 1519 1516 1513 1511 1508 1505 1502 1499 1495 1492 1489
1536 1546 1545 1546 1544 1546 1547 1549 1555 1558 1560 1564 1555 1551 1538 1531 1529 1527 1527 1529 1531 1532 1532 1533 1532 1532 1531 1529 1528 1526 1524 1522 1520 1517 1515 1513 1510 1507 1504 1501 1498 1495 1492 1489
1537 1543 1543 1544 1543 1543 1545 1543 1548 1551 1551 1552 1550 1545 1528 1526 1525 1524 1524 1526 1527 1528 1530 1530 1530 1530 1529 1528 1526 1524 1522 1520 1518 1516 1514 1512 1509 1507 1504 1501 1498 1495 1493 1490
1540 1543 1549 1551 1547 1543 1547 1538 1541 1542 1542 1543 1544 1535 1525 1525 1523 1522 1522 1523 1524 1525 1527 1528 1528 1528 1527 1526 1525 1523 1521 1519 1517 1515 1513 1511 1508 1506 1503 1501 1498 1496 1493 1490
1540 1546 1555 1556 1549 1551 1541 1530 1531 1534 1533 1533 1531 1527 1524 1523 1521 1520 1520 1520 1521 1523 1524 1525 1526 1526 1526 1525 1523 1522 1520 1518 1516 1514 1512 1510 1508 1506 1503 1501 1498 1496 1493 1490
1535 1543 1555 1560 1557 1552 1535 1528 1528 1531 1530 1525 1526 1522 1521 1520 1520 1518 1517 1517 1518 1520 1521 1523 1524 1524 1524 1523 1522 1521 1519 1517 1515 1513 1511 1509 1507 1505 1503 1500 1498 1495 1493 1490
1538 1541 1553 1559 1554 1552 1536 1526 1525 1529 1532 1523 1522 1521 1520 1520 1525 1520 1516 1515 1516 1517 1519 1520 1521 1521 1521 1521 1520 1519 1518 1516 1514 1512 1511 1509 1507 1505 1502 1500 1498 1495 1492 1489
1543 1548 1553 1557 1555 1547 1529 1524 1526 1538 1536 1522 1520 1519 1519 1518 1518 1516 1515 1515 1515 1515 1516 1518 1518 1519 1519 1519 1518 1517 1516 1515 1513 1511 1510 1508 1506 1504 1502 1500 1497 1495 1492 1489
1541 1548 1552 1556 1554 1545 1524 1524 1528 1528 1521 1520 1519 1518 1517 1516 1514 1514 1513 1513 1513 1514 1514 1515 1515 1516 1517 1516 1516 1515 1514 1513 1511 1510 1508 1507 1505 1503 1502 1499 1497 1494 1492 1489
1533 1533 1536 1538 1537 1527 1524 1523 1523 1521 1520 1519 1518 1517 1516 1514 1513 1512 1511 1511 1511 1511 1512 1512 1513 1513 1514 1514 1513 1512 1512 1511 1509 1508 1507 1505 1504 1502 1501 1498 1496 1494 1491 1489
1526 1525 1528 1530 1525 1524 1523 1521 1519 1518 1517 1517 1516 1515 1514 1513 1512 1511 1509 1509 1509 1509 1509 1510 1510 1510 1510 1510 1510 1510 1510 1509 1507 1506 1504 1503 1502 1500 1499 1497 1495 1493 1491 1489
1519 1522 1524 1524 1522 1522 1521 1520 1518 1517 1516 1515 1515 1514 1513 1512 1510 1509 1508 1507 1506 1506 1506 1506 1506 1506 1506 1507 1507 1507 1506 1505 1504 1503 1502 1500 1499 1498 1496 1495 1493 1491 1490 1488
1517 1518 1520 1520 1519 1520 1522 1520 1518 1516 1515 1514 1514 1513 1512 1511 1509 1508 1507 1505 1504 1503 1503 1502 1502 1502 1502 1503 1503 1503 1502 1502 1500 1499 1498 1497 1496 1495 1493 1492 1491 1489 1488 1486